SWA1299 MMPR-KPHX

Flight info

Callsign SWA1299
Flight time 2h 19m
Altitude 38000
Route BOBDI1A BOBDI UT4 LMM UJ3 HMO J92 VYLLA DCT TUS DCT HOTTT PINNG1
Aircraft B38M/M-SADE2E3GHIJ4J7P2RWZ/LB1D1

Departure

Time 2026-04-24 10:53
Airport Puerto Vallarta International Airport (MMPR)

Arrival

Time 2026-04-24 13:12
Airport Phoenix Sky Harbor International Airport (KPHX)
Time Latitude Longitude Altitude Speed Heading
2026-04-24 10:27 20.68085 -105.24679 26 ft 0 kts 227°
2026-04-24 10:44 20.68092 -105.24670 26 ft 2 kts 230°
2026-04-24 10:44 20.68102 -105.24656 27 ft 2 kts 237°
2026-04-24 10:44 20.68110 -105.24641 27 ft 2 kts 252°
2026-04-24 10:44 20.68111 -105.24624 27 ft 2 kts 289°
2026-04-24 10:45 20.68104 -105.24610 27 ft 1 kts 315°
2026-04-24 10:45 20.68101 -105.24607 27 ft 0 kts 317°
2026-04-24 10:48 20.68109 -105.24616 27 ft 3 kts 317°
2026-04-24 10:48 20.68128 -105.24634 27 ft 5 kts 318°
2026-04-24 10:48 20.68158 -105.24662 27 ft 7 kts 318°
2026-04-24 10:48 20.68202 -105.24697 27 ft 9 kts 333°
2026-04-24 10:49 20.68267 -105.24694 27 ft 10 kts 14°
2026-04-24 10:49 20.68342 -105.24668 27 ft 12 kts 18°
2026-04-24 10:49 20.68429 -105.24637 27 ft 14 kts 18°
2026-04-24 10:49 20.68508 -105.24588 28 ft 14 kts 45°
2026-04-24 10:50 20.68578 -105.24511 28 ft 15 kts 46°
2026-04-24 10:50 20.68655 -105.24425 29 ft 17 kts 49°
2026-04-24 10:50 20.68734 -105.24328 29 ft 18 kts 49°
2026-04-24 10:50 20.68789 -105.24273 29 ft 10 kts 33°
2026-04-24 10:51 20.68858 -105.24283 29 ft 11 kts 321°
2026-04-24 10:51 20.68895 -105.24318 29 ft 8 kts 317°
2026-04-24 10:51 20.68912 -105.24374 29 ft 9 kts 252°
2026-04-24 10:51 20.68875 -105.24427 30 ft 7 kts 226°
2026-04-24 10:52 20.68871 -105.24431 30 ft 6 kts 226°
2026-04-24 10:52 20.68682 -105.24644 28 ft 77 kts 226°
2026-04-24 10:52 20.68159 -105.25245 29 ft 141 kts 226°
2026-04-24 10:52 20.67387 -105.26141 223 ft 173 kts 229°
2026-04-24 10:53 20.66526 -105.27148 740 ft 185 kts 225°
2026-04-24 10:53 20.65664 -105.28078 1744 ft 172 kts 224°
2026-04-24 10:53 20.64817 -105.29000 2348 ft 180 kts 225°
2026-04-24 10:53 20.63939 -105.29970 2962 ft 183 kts 228°
2026-04-24 10:54 20.63291 -105.31171 3387 ft 198 kts 261°
2026-04-24 10:54 20.63520 -105.32659 3708 ft 216 kts 303°
2026-04-24 10:54 20.64599 -105.33650 4573 ft 206 kts 340°
2026-04-24 10:54 20.66041 -105.33854 5217 ft 213 kts 355°
2026-04-24 10:55 20.67494 -105.34179 5973 ft 213 kts 342°
2026-04-24 10:55 20.68933 -105.34609 6689 ft 217 kts 343°
2026-04-24 10:55 20.70385 -105.35022 7389 ft 218 kts 343°
2026-04-24 10:55 20.71867 -105.35430 8083 ft 222 kts 344°
2026-04-24 10:56 20.73385 -105.35839 8795 ft 225 kts 344°
2026-04-24 10:56 20.74913 -105.36244 9510 ft 228 kts 344°
2026-04-24 10:56 20.76463 -105.36652 10177 ft 231 kts 344°
2026-04-24 10:56 20.78018 -105.37057 10807 ft 234 kts 344°
2026-04-24 10:57 20.79616 -105.37472 11489 ft 238 kts 344°
2026-04-24 10:57 20.81239 -105.37892 12159 ft 241 kts 344°
2026-04-24 10:57 20.82886 -105.38319 12856 ft 245 kts 344°
2026-04-24 10:57 20.84541 -105.38746 13551 ft 249 kts 343°
2026-04-24 10:58 20.86235 -105.39183 14213 ft 252 kts 344°
2026-04-24 10:58 20.88003 -105.39499 14709 ft 266 kts 354°
2026-04-24 10:58 20.89930 -105.39594 15050 ft 285 kts 355°
2026-04-24 10:58 20.91279 -105.39665 15255 ft 298 kts 355°
2026-04-24 10:59 20.94158 -105.39825 15635 ft 324 kts 355°
2026-04-24 10:59 20.96479 -105.39960 15872 ft 344 kts 355°
2026-04-24 10:59 20.98931 -105.40104 16108 ft 361 kts 355°
2026-04-24 10:59 21.00622 -105.40207 16329 ft 370 kts 354°
2026-04-24 11:00 21.03127 -105.40829 16916 ft 370 kts 336°
2026-04-24 11:00 21.05327 -105.42258 17514 ft 373 kts 320°
2026-04-24 11:00 21.07943 -105.44699 18262 ft 378 kts 318°
2026-04-24 11:00 21.09269 -105.45978 18588 ft 380 kts 317°
2026-04-24 11:01 21.11200 -105.47867 19109 ft 382 kts 317°
2026-04-24 11:01 21.13156 -105.49802 19610 ft 384 kts 317°
2026-04-24 11:01 21.15121 -105.51761 20115 ft 387 kts 316°
2026-04-24 11:01 21.17098 -105.53738 20617 ft 389 kts 316°
2026-04-24 11:02 21.19087 -105.55730 21120 ft 391 kts 316°
2026-04-24 11:02 21.21087 -105.57735 21614 ft 394 kts 316°
2026-04-24 11:02 21.23077 -105.59731 22101 ft 396 kts 316°
2026-04-24 11:02 21.25099 -105.61760 22576 ft 399 kts 316°
2026-04-24 11:03 21.27137 -105.63805 23056 ft 401 kts 316°
2026-04-24 11:03 21.29190 -105.65866 23524 ft 404 kts 315°
2026-04-24 11:03 21.31248 -105.67934 23906 ft 406 kts 315°
2026-04-24 11:03 21.33315 -105.70011 24297 ft 409 kts 315°
2026-04-24 11:04 21.35369 -105.72077 24675 ft 411 kts 315°
2026-04-24 11:04 21.37467 -105.74179 25067 ft 414 kts 317°
2026-04-24 11:04 21.39794 -105.76033 25464 ft 416 kts 323°
2026-04-24 11:04 21.42182 -105.77810 25840 ft 419 kts 323°
2026-04-24 11:05 21.44586 -105.79600 26220 ft 422 kts 323°
2026-04-24 11:05 21.47006 -105.81401 26605 ft 424 kts 323°
2026-04-24 11:05 21.49438 -105.83211 26970 ft 426 kts 323°
2026-04-24 11:05 21.51881 -105.85028 27330 ft 429 kts 323°
2026-04-24 11:06 21.54310 -105.86837 27681 ft 431 kts 323°
2026-04-24 11:06 21.56787 -105.88682 28029 ft 433 kts 323°
2026-04-24 11:06 21.59275 -105.90537 28371 ft 436 kts 323°
2026-04-24 11:06 21.61774 -105.92399 28712 ft 438 kts 322°
2026-04-24 11:07 21.66794 -105.96144 29384 ft 443 kts 322°
2026-04-24 11:07 21.69326 -105.98034 29735 ft 444 kts 322°
2026-04-24 11:07 21.71875 -105.99937 30058 ft 446 kts 322°
2026-04-24 11:08 21.74440 -106.01853 30288 ft 450 kts 322°
2026-04-24 11:08 21.77019 -106.03781 30551 ft 452 kts 322°
2026-04-24 11:08 21.79613 -106.05721 30817 ft 454 kts 322°
2026-04-24 11:08 21.82179 -106.07640 31069 ft 456 kts 322°
2026-04-24 11:09 21.84798 -106.09601 31332 ft 458 kts 322°
2026-04-24 11:09 21.87426 -106.11568 31621 ft 460 kts 322°
2026-04-24 11:09 21.90024 -106.13514 31961 ft 460 kts 322°
2026-04-24 11:09 21.92654 -106.15485 32312 ft 460 kts 321°
2026-04-24 11:10 21.95283 -106.17457 32675 ft 460 kts 321°
2026-04-24 11:10 21.97909 -106.19427 33064 ft 459 kts 321°
2026-04-24 11:10 22.00531 -106.21394 33468 ft 458 kts 321°
2026-04-24 11:10 22.03150 -106.23361 33848 ft 457 kts 321°
2026-04-24 11:11 22.05760 -106.25321 34180 ft 457 kts 321°
2026-04-24 11:11 22.08336 -106.27257 34511 ft 456 kts 321°
2026-04-24 11:11 22.10939 -106.29214 34842 ft 455 kts 320°
2026-04-24 11:11 22.13531 -106.31163 35216 ft 453 kts 320°
2026-04-24 11:12 22.16111 -106.33104 35553 ft 451 kts 320°
2026-04-24 11:12 22.18685 -106.35043 35867 ft 450 kts 320°
2026-04-24 11:12 22.21254 -106.36978 36144 ft 450 kts 320°
2026-04-24 11:12 22.23832 -106.38921 36426 ft 449 kts 320°
2026-04-24 11:13 22.26396 -106.40854 36731 ft 448 kts 320°
2026-04-24 11:13 22.28947 -106.42779 37074 ft 446 kts 320°
2026-04-24 11:13 22.31451 -106.44669 37389 ft 444 kts 319°
2026-04-24 11:13 22.33990 -106.46586 37669 ft 443 kts 319°
2026-04-24 11:14 22.36518 -106.48495 37901 ft 442 kts 319°
2026-04-24 11:14 22.39045 -106.50404 37943 ft 442 kts 319°
2026-04-24 11:14 22.44039 -106.54181 37918 ft 439 kts 319°
2026-04-24 11:15 22.49064 -106.57984 37913 ft 439 kts 319°
2026-04-24 11:15 22.54046 -106.61758 37914 ft 439 kts 319°
2026-04-24 11:16 22.59061 -106.65560 37911 ft 438 kts 319°
2026-04-24 11:16 22.64017 -106.69322 37915 ft 438 kts 319°
2026-04-24 11:17 22.69019 -106.73122 37918 ft 439 kts 319°
2026-04-24 11:17 22.74016 -106.76921 37916 ft 439 kts 319°
2026-04-24 11:18 22.78992 -106.80707 37914 ft 439 kts 319°
2026-04-24 11:18 22.83993 -106.84517 37925 ft 439 kts 319°
2026-04-24 11:19 22.88979 -106.88318 37911 ft 438 kts 319°
2026-04-24 11:19 22.93967 -106.92124 37913 ft 438 kts 319°
2026-04-24 11:20 22.98926 -106.95912 37913 ft 438 kts 319°
2026-04-24 11:20 23.03931 -106.99738 37915 ft 438 kts 319°
2026-04-24 11:21 23.08897 -107.03538 37913 ft 438 kts 319°
2026-04-24 11:21 23.13887 -107.07359 37926 ft 438 kts 318°
2026-04-24 11:22 23.18844 -107.11159 37912 ft 438 kts 318°
2026-04-24 11:22 23.23839 -107.14991 37914 ft 438 kts 318°
2026-04-24 11:23 23.28785 -107.18790 37919 ft 438 kts 318°
2026-04-24 11:23 23.33774 -107.22624 37920 ft 438 kts 318°
2026-04-24 11:24 23.38729 -107.26436 37916 ft 438 kts 318°
2026-04-24 11:24 23.43716 -107.30276 37916 ft 437 kts 318°
2026-04-24 11:25 23.48678 -107.34100 37918 ft 437 kts 318°
2026-04-24 11:25 23.53613 -107.37908 37917 ft 437 kts 318°
2026-04-24 11:26 23.58584 -107.41747 37910 ft 438 kts 318°
2026-04-24 11:26 23.63533 -107.45572 37914 ft 438 kts 318°
2026-04-24 11:27 23.68524 -107.49433 37914 ft 438 kts 318°
2026-04-24 11:27 23.73474 -107.53267 37914 ft 438 kts 318°
2026-04-24 11:28 23.78447 -107.57121 37917 ft 438 kts 318°
2026-04-24 11:28 23.83419 -107.60979 37914 ft 438 kts 318°
2026-04-24 11:29 23.88395 -107.64843 37914 ft 438 kts 318°
2026-04-24 11:29 23.93353 -107.68697 37914 ft 438 kts 318°
2026-04-24 11:30 23.98333 -107.72573 37924 ft 438 kts 317°
2026-04-24 11:30 24.03259 -107.76410 37914 ft 438 kts 317°
2026-04-24 11:31 24.08259 -107.80308 37917 ft 439 kts 317°
2026-04-24 11:31 24.13201 -107.84165 37917 ft 439 kts 317°
2026-04-24 11:32 24.18179 -107.88053 37917 ft 439 kts 317°
2026-04-24 11:32 24.23151 -107.91941 37917 ft 438 kts 317°
2026-04-24 11:33 24.28113 -107.95824 37913 ft 437 kts 317°
2026-04-24 11:33 24.33037 -107.99682 37915 ft 437 kts 317°
2026-04-24 11:34 24.37993 -108.03569 37917 ft 437 kts 317°
2026-04-24 11:34 24.42905 -108.07424 37917 ft 436 kts 317°
2026-04-24 11:35 24.47843 -108.11304 37917 ft 436 kts 317°
2026-04-24 11:35 24.52789 -108.15195 37937 ft 436 kts 317°
2026-04-24 11:36 24.57708 -108.19068 37911 ft 434 kts 317°
2026-04-24 11:36 24.62601 -108.22923 37914 ft 434 kts 317°
2026-04-24 11:37 24.67528 -108.26810 37914 ft 434 kts 317°
2026-04-24 11:37 24.72412 -108.30667 37914 ft 434 kts 317°
2026-04-24 11:38 24.77331 -108.34555 37916 ft 434 kts 317°
2026-04-24 11:38 24.82206 -108.38412 37920 ft 432 kts 317°
2026-04-24 11:39 24.87086 -108.42277 37919 ft 431 kts 317°
2026-04-24 11:39 24.91975 -108.46153 37914 ft 432 kts 317°
2026-04-24 11:40 24.96843 -108.50016 37913 ft 432 kts 317°
2026-04-24 11:40 25.01703 -108.53876 37914 ft 432 kts 317°
2026-04-24 11:41 25.06596 -108.57767 37932 ft 432 kts 316°
2026-04-24 11:41 25.11446 -108.61627 37906 ft 430 kts 316°
2026-04-24 11:42 25.16313 -108.65504 37912 ft 431 kts 316°
2026-04-24 11:42 25.21179 -108.69384 37911 ft 430 kts 316°
2026-04-24 11:43 25.26016 -108.73244 37912 ft 430 kts 316°
2026-04-24 11:43 25.30870 -108.77129 37912 ft 430 kts 316°
2026-04-24 11:44 25.35735 -108.81023 37920 ft 431 kts 316°
2026-04-24 11:44 25.40554 -108.84884 37917 ft 430 kts 316°
2026-04-24 11:45 25.45400 -108.88770 37916 ft 430 kts 316°
2026-04-24 11:45 25.50217 -108.92654 37885 ft 428 kts 314°
2026-04-24 11:46 25.55054 -108.96550 37910 ft 431 kts 316°
2026-04-24 11:46 25.59911 -109.00433 37952 ft 430 kts 316°
2026-04-24 11:47 25.64725 -109.04308 37924 ft 427 kts 316°
2026-04-24 11:47 25.69836 -109.07784 37923 ft 442 kts 331°
2026-04-24 11:48 25.74599 -109.09908 37906 ft 443 kts 329°
2026-04-24 11:48 25.81257 -109.12882 37935 ft 444 kts 329°
2026-04-24 11:49 25.86023 -109.14988 37924 ft 443 kts 329°
2026-04-24 11:49 25.91770 -109.17528 37921 ft 442 kts 329°
2026-04-24 11:50 25.97457 -109.20042 37916 ft 441 kts 329°
2026-04-24 11:50 26.03182 -109.22577 37918 ft 442 kts 329°
2026-04-24 11:51 26.08868 -109.25097 37912 ft 441 kts 329°
2026-04-24 11:51 26.14576 -109.27630 37938 ft 442 kts 329°
2026-04-24 11:52 26.20269 -109.30158 37907 ft 437 kts 328°
2026-04-24 11:52 26.25899 -109.32662 37912 ft 438 kts 328°
2026-04-24 11:53 26.31562 -109.35183 37911 ft 438 kts 328°
2026-04-24 11:53 26.37210 -109.37699 37914 ft 438 kts 328°
2026-04-24 11:54 26.42885 -109.40231 37911 ft 438 kts 328°
2026-04-24 11:54 26.48544 -109.42758 37911 ft 438 kts 328°
2026-04-24 11:55 26.54173 -109.45274 37911 ft 438 kts 328°
2026-04-24 11:55 26.59841 -109.47810 37910 ft 438 kts 328°
2026-04-24 11:56 26.65481 -109.50337 37911 ft 438 kts 328°
2026-04-24 11:56 26.71128 -109.52869 37927 ft 436 kts 328°
2026-04-24 11:57 26.76746 -109.55391 37906 ft 434 kts 328°
2026-04-24 11:57 26.82372 -109.57919 37912 ft 435 kts 328°
2026-04-24 11:58 26.87955 -109.60431 37910 ft 435 kts 328°
2026-04-24 11:58 26.93585 -109.62966 37912 ft 435 kts 328°
2026-04-24 11:59 26.99179 -109.65488 37910 ft 433 kts 328°
2026-04-24 11:59 27.04742 -109.67999 37911 ft 433 kts 328°
2026-04-24 12:00 27.10344 -109.70530 37914 ft 432 kts 327°
2026-04-24 12:00 27.15934 -109.73057 37914 ft 433 kts 327°
2026-04-24 12:01 27.21499 -109.75575 37911 ft 433 kts 328°
2026-04-24 12:01 27.27099 -109.78112 37911 ft 431 kts 327°
2026-04-24 12:02 27.32676 -109.80641 37906 ft 432 kts 327°
2026-04-24 12:02 27.38221 -109.83159 37910 ft 432 kts 327°
2026-04-24 12:03 27.40836 -109.84695 37914 ft 415 kts 316°
2026-04-24 12:03 27.43299 -109.86432 37906 ft 419 kts 318°
2026-04-24 12:03 27.48223 -109.89865 37915 ft 418 kts 317°
2026-04-24 12:04 27.53178 -109.93343 37909 ft 416 kts 317°
2026-04-24 12:04 27.58065 -109.96780 37912 ft 417 kts 317°
2026-04-24 12:05 27.62991 -110.00247 37916 ft 417 kts 317°
2026-04-24 12:05 27.67891 -110.03699 37914 ft 417 kts 317°
2026-04-24 12:06 27.72814 -110.07172 37911 ft 416 kts 317°
2026-04-24 12:06 27.77726 -110.10640 37914 ft 415 kts 317°
2026-04-24 12:07 27.82594 -110.14084 37922 ft 414 kts 316°
2026-04-24 12:07 27.87484 -110.17547 37914 ft 414 kts 316°
2026-04-24 12:08 27.92344 -110.20994 37915 ft 414 kts 316°
2026-04-24 12:08 27.97236 -110.24465 37915 ft 414 kts 316°
2026-04-24 12:09 28.02123 -110.27935 37934 ft 413 kts 316°
2026-04-24 12:09 28.06961 -110.31376 37872 ft 413 kts 316°
2026-04-24 12:10 28.11856 -110.34861 37885 ft 413 kts 316°
2026-04-24 12:11 28.19123 -110.40037 37941 ft 411 kts 316°
2026-04-24 12:11 28.23963 -110.43492 37896 ft 412 kts 316°
2026-04-24 12:12 28.28814 -110.46958 37922 ft 410 kts 316°
2026-04-24 12:12 28.33626 -110.50399 37925 ft 411 kts 316°
2026-04-24 12:13 28.38456 -110.53857 37921 ft 411 kts 316°
2026-04-24 12:13 28.43306 -110.57333 37923 ft 411 kts 316°
2026-04-24 12:14 28.48123 -110.60789 37926 ft 411 kts 316°
2026-04-24 12:14 28.52967 -110.64269 37931 ft 410 kts 315°
2026-04-24 12:15 28.57792 -110.67739 37928 ft 410 kts 315°
2026-04-24 12:15 28.62587 -110.71190 37925 ft 410 kts 315°
2026-04-24 12:16 28.67414 -110.74668 37918 ft 410 kts 315°
2026-04-24 12:16 28.72211 -110.78130 37925 ft 410 kts 315°
2026-04-24 12:17 28.77034 -110.81614 37928 ft 410 kts 315°
2026-04-24 12:17 28.81828 -110.85081 37927 ft 410 kts 315°
2026-04-24 12:18 28.86662 -110.88580 37928 ft 410 kts 315°
2026-04-24 12:18 28.91456 -110.92055 37931 ft 410 kts 315°
2026-04-24 12:19 28.96285 -110.95559 37944 ft 410 kts 315°
2026-04-24 12:19 29.01110 -110.99064 37928 ft 409 kts 315°
2026-04-24 12:20 29.05903 -111.02548 37935 ft 410 kts 315°
2026-04-24 12:20 29.08466 -111.04089 37928 ft 428 kts 328°
2026-04-24 12:20 29.11464 -111.04875 37944 ft 454 kts 342°
2026-04-24 12:20 29.14698 -111.04893 37954 ft 469 kts 349°
2026-04-24 12:21 29.17927 -111.04791 37923 ft 470 kts 349°
2026-04-24 12:21 29.24495 -111.04531 37979 ft 471 kts 349°
2026-04-24 12:22 29.31051 -111.04246 37930 ft 471 kts 349°
2026-04-24 12:22 29.37583 -111.03956 37922 ft 471 kts 349°
2026-04-24 12:23 29.44115 -111.03663 37907 ft 471 kts 349°
2026-04-24 12:23 29.50687 -111.03369 37920 ft 472 kts 349°
2026-04-24 12:24 29.57255 -111.03075 37913 ft 471 kts 349°
2026-04-24 12:24 29.63776 -111.02782 37913 ft 472 kts 349°
2026-04-24 12:25 29.70351 -111.02487 37913 ft 472 kts 349°
2026-04-24 12:25 29.76917 -111.02192 37911 ft 472 kts 349°
2026-04-24 12:26 29.83480 -111.01897 37916 ft 471 kts 349°
2026-04-24 12:26 29.89982 -111.01604 37910 ft 470 kts 349°
2026-04-24 12:27 29.96546 -111.01308 37908 ft 471 kts 349°
2026-04-24 12:27 30.03067 -111.01013 37904 ft 471 kts 349°
2026-04-24 12:28 30.09613 -111.00718 37916 ft 470 kts 349°
2026-04-24 12:28 30.16141 -111.00424 37901 ft 469 kts 349°
2026-04-24 12:29 30.22641 -111.00131 37909 ft 469 kts 349°
2026-04-24 12:29 30.29175 -110.99836 37899 ft 469 kts 349°
2026-04-24 12:30 30.35703 -110.99541 37926 ft 468 kts 348°
2026-04-24 12:30 30.42166 -110.99249 37900 ft 466 kts 348°
2026-04-24 12:31 30.48673 -110.98954 37892 ft 467 kts 348°
2026-04-24 12:31 30.55177 -110.98639 37897 ft 467 kts 349°
2026-04-24 12:32 30.61637 -110.98325 37931 ft 467 kts 348°
2026-04-24 12:32 30.68138 -110.98006 37867 ft 468 kts 348°
2026-04-24 12:33 30.74665 -110.97689 37890 ft 468 kts 349°
2026-04-24 12:33 30.81123 -110.97381 37901 ft 467 kts 348°
2026-04-24 12:34 30.87619 -110.97089 37918 ft 465 kts 348°
2026-04-24 12:34 30.94109 -110.96790 37898 ft 466 kts 348°
2026-04-24 12:35 31.00570 -110.96492 37892 ft 466 kts 348°
2026-04-24 12:35 31.07078 -110.96198 37888 ft 466 kts 349°
2026-04-24 12:36 31.13522 -110.95901 37942 ft 466 kts 348°
2026-04-24 12:36 31.19997 -110.95603 37950 ft 465 kts 349°
2026-04-24 12:37 31.25418 -110.95354 37975 ft 465 kts 349°
2026-04-24 12:37 31.31858 -110.95058 38001 ft 465 kts 348°
2026-04-24 12:38 31.38327 -110.94762 38018 ft 465 kts 349°
2026-04-24 12:38 31.44802 -110.94467 37991 ft 462 kts 349°
2026-04-24 12:39 31.57635 -110.93879 37977 ft 463 kts 349°
2026-04-24 12:40 31.64088 -110.93582 37953 ft 463 kts 349°
2026-04-24 12:40 31.70533 -110.93286 37896 ft 463 kts 349°
2026-04-24 12:41 31.76931 -110.92991 37914 ft 462 kts 349°
2026-04-24 12:41 31.83378 -110.92695 37910 ft 463 kts 349°
2026-04-24 12:42 31.89833 -110.92397 37943 ft 463 kts 349°
2026-04-24 12:42 31.96229 -110.92101 37282 ft 462 kts 349°
2026-04-24 12:42 31.99477 -110.91952 36221 ft 470 kts 350°
2026-04-24 12:43 32.02732 -110.91800 35705 ft 465 kts 350°
2026-04-24 12:43 32.05967 -110.91650 35020 ft 465 kts 350°
2026-04-24 12:43 32.09198 -110.91616 34091 ft 458 kts 342°
2026-04-24 12:43 32.12260 -110.92318 32957 ft 443 kts 336°
2026-04-24 12:44 32.15213 -110.93072 32165 ft 434 kts 337°
2026-04-24 12:44 32.18151 -110.93834 31604 ft 427 kts 337°
2026-04-24 12:44 32.21047 -110.94605 30898 ft 428 kts 337°
2026-04-24 12:44 32.23973 -110.95393 30102 ft 433 kts 338°
2026-04-24 12:45 32.26911 -110.96188 29326 ft 431 kts 338°
2026-04-24 12:45 32.29816 -110.96975 28739 ft 426 kts 338°
2026-04-24 12:45 32.32655 -110.97745 28150 ft 421 kts 338°
2026-04-24 12:45 32.35511 -110.98520 27522 ft 418 kts 339°
2026-04-24 12:46 32.38339 -110.99288 26917 ft 415 kts 339°
2026-04-24 12:46 32.41156 -111.00054 26336 ft 413 kts 339°
2026-04-24 12:46 32.43916 -111.00805 25746 ft 411 kts 339°
2026-04-24 12:46 32.46699 -111.01562 25362 ft 404 kts 339°
2026-04-24 12:47 32.49401 -111.02298 25127 ft 392 kts 339°
2026-04-24 12:47 32.52008 -111.03071 24854 ft 377 kts 332°
2026-04-24 12:47 32.54279 -111.04491 24493 ft 366 kts 321°
2026-04-24 12:47 32.56437 -111.06067 24195 ft 369 kts 322°
2026-04-24 12:48 32.58618 -111.07665 23837 ft 368 kts 322°
2026-04-24 12:48 32.60792 -111.09276 23481 ft 367 kts 322°
2026-04-24 12:48 32.62943 -111.10882 23052 ft 365 kts 321°
2026-04-24 12:48 32.65091 -111.12492 22696 ft 363 kts 321°
2026-04-24 12:49 32.67198 -111.14074 22311 ft 361 kts 321°
2026-04-24 12:49 32.69318 -111.15666 21959 ft 360 kts 321°
2026-04-24 12:49 32.71426 -111.17251 21605 ft 356 kts 321°
2026-04-24 12:49 32.73507 -111.18831 21247 ft 349 kts 319°
2026-04-24 12:50 32.75184 -111.20812 20826 ft 335 kts 301°
2026-04-24 12:50 32.76502 -111.23078 20547 ft 329 kts 301°
2026-04-24 12:50 32.77785 -111.25276 20248 ft 327 kts 301°
2026-04-24 12:50 32.79072 -111.27510 19924 ft 327 kts 300°
2026-04-24 12:51 32.80352 -111.29754 19604 ft 326 kts 300°
2026-04-24 12:51 32.81618 -111.31987 19283 ft 325 kts 300°
2026-04-24 12:51 32.82880 -111.34217 18975 ft 324 kts 300°
2026-04-24 12:51 32.84135 -111.36441 18651 ft 323 kts 300°
2026-04-24 12:52 32.85368 -111.38629 18342 ft 322 kts 300°
2026-04-24 12:52 32.86614 -111.40839 17988 ft 320 kts 300°
2026-04-24 12:52 32.87844 -111.43025 17640 ft 316 kts 300°
2026-04-24 12:52 32.89058 -111.45182 17336 ft 311 kts 300°
2026-04-24 12:53 32.90248 -111.47297 17081 ft 304 kts 300°
2026-04-24 12:53 32.91469 -111.49336 16774 ft 302 kts 305°
2026-04-24 12:53 32.92780 -111.51257 16472 ft 297 kts 304°
2026-04-24 12:53 32.94065 -111.53161 16198 ft 292 kts 304°
2026-04-24 12:54 32.95325 -111.55042 15908 ft 288 kts 304°
2026-04-24 12:54 32.96553 -111.56882 15653 ft 287 kts 304°
2026-04-24 12:54 32.97799 -111.58751 15387 ft 289 kts 304°
2026-04-24 12:54 32.99050 -111.60631 15103 ft 288 kts 304°
2026-04-24 12:55 33.00296 -111.62506 14819 ft 287 kts 304°
2026-04-24 12:55 33.01529 -111.64362 14535 ft 284 kts 304°
2026-04-24 12:55 33.02756 -111.66206 14275 ft 283 kts 304°
2026-04-24 12:55 33.03958 -111.68018 14182 ft 272 kts 304°
2026-04-24 12:56 33.05095 -111.69733 14112 ft 265 kts 303°
2026-04-24 12:56 33.06264 -111.71497 14036 ft 276 kts 304°
2026-04-24 12:56 33.07471 -111.73315 13859 ft 282 kts 304°
2026-04-24 12:56 33.08703 -111.75164 13507 ft 284 kts 304°
2026-04-24 12:57 33.09917 -111.76985 13160 ft 282 kts 304°
2026-04-24 12:57 33.11138 -111.78819 12801 ft 281 kts 304°
2026-04-24 12:57 33.12353 -111.80646 12434 ft 280 kts 304°
2026-04-24 12:57 33.13565 -111.82469 12074 ft 279 kts 304°
2026-04-24 12:58 33.14761 -111.84269 11712 ft 279 kts 304°
2026-04-24 12:58 33.15968 -111.86085 11334 ft 279 kts 304°
2026-04-24 12:58 33.17179 -111.87909 10927 ft 281 kts 305°
2026-04-24 12:58 33.18394 -111.89741 10569 ft 281 kts 305°
2026-04-24 12:59 33.19610 -111.91574 10207 ft 281 kts 305°
2026-04-24 12:59 33.20826 -111.93407 9838 ft 281 kts 305°
2026-04-24 12:59 33.22026 -111.95219 9440 ft 282 kts 305°
2026-04-24 12:59 33.23247 -111.97062 9042 ft 282 kts 306°
2026-04-24 13:00 33.24466 -111.98897 8656 ft 282 kts 306°
2026-04-24 13:00 33.25687 -112.00739 8307 ft 281 kts 306°
2026-04-24 13:00 33.26884 -112.02544 7961 ft 280 kts 306°
2026-04-24 13:00 33.28089 -112.04363 7616 ft 279 kts 306°
2026-04-24 13:01 33.29291 -112.06177 7285 ft 278 kts 307°
2026-04-24 13:01 33.30464 -112.08010 7035 ft 273 kts 300°
2026-04-24 13:01 33.31274 -112.09992 7032 ft 258 kts 293°
2026-04-24 13:01 33.31991 -112.11894 7029 ft 244 kts 293°
2026-04-24 13:02 33.32678 -112.13700 7018 ft 231 kts 293°
2026-04-24 13:02 33.33330 -112.15403 7018 ft 227 kts 293°
2026-04-24 13:02 33.33965 -112.17131 6990 ft 226 kts 286°
2026-04-24 13:02 33.34123 -112.18979 6972 ft 224 kts 270°
2026-04-24 13:03 33.34144 -112.20862 6987 ft 226 kts 271°
2026-04-24 13:03 33.34162 -112.22739 6973 ft 226 kts 270°
2026-04-24 13:03 33.34173 -112.24596 6969 ft 226 kts 270°
2026-04-24 13:03 33.34180 -112.26475 6969 ft 226 kts 270°
2026-04-24 13:04 33.34184 -112.28356 6972 ft 226 kts 270°
2026-04-24 13:04 33.34185 -112.30239 6969 ft 226 kts 270°
2026-04-24 13:04 33.34185 -112.32116 6970 ft 225 kts 270°
2026-04-24 13:04 33.34186 -112.33963 6969 ft 223 kts 270°
2026-04-24 13:05 33.34199 -112.35815 6951 ft 222 kts 275°
2026-04-24 13:05 33.34723 -112.37537 6764 ft 225 kts 308°
2026-04-24 13:05 33.35999 -112.38602 6551 ft 229 kts 342°
2026-04-24 13:05 33.37595 -112.38621 6339 ft 234 kts 15°
2026-04-24 13:06 33.38986 -112.37610 6173 ft 239 kts 46°
2026-04-24 13:06 33.39824 -112.35915 5928 ft 242 kts 67°
2026-04-24 13:06 33.40421 -112.34030 5677 ft 242 kts 69°
2026-04-24 13:06 33.40981 -112.32128 5427 ft 241 kts 70°
2026-04-24 13:07 33.41526 -112.30240 5204 ft 237 kts 70°
2026-04-24 13:07 33.42059 -112.28386 5004 ft 233 kts 70°
2026-04-24 13:07 33.42533 -112.26541 4764 ft 231 kts 76°
2026-04-24 13:07 33.42788 -112.24667 4456 ft 231 kts 84°
2026-04-24 13:08 33.42871 -112.22738 4179 ft 231 kts 88°
2026-04-24 13:08 33.42891 -112.20824 3932 ft 229 kts 89°
2026-04-24 13:08 33.42891 -112.18926 3706 ft 227 kts 90°
2026-04-24 13:09 33.42889 -112.15184 3172 ft 222 kts 90°
2026-04-24 13:09 33.42889 -112.13388 2873 ft 209 kts 90°
2026-04-24 13:09 33.42889 -112.11737 2623 ft 186 kts 91°
2026-04-24 13:09 33.42889 -112.10279 2400 ft 163 kts 91°
2026-04-24 13:10 33.42888 -112.08983 2177 ft 152 kts 91°
2026-04-24 13:10 33.42887 -112.07729 1991 ft 148 kts 91°
2026-04-24 13:10 33.42885 -112.06504 1804 ft 146 kts 91°
2026-04-24 13:10 33.42863 -112.05284 1597 ft 149 kts 91°
2026-04-24 13:11 33.42876 -112.04037 1366 ft 149 kts 88°
2026-04-24 13:11 33.42875 -112.02830 1186 ft 141 kts 90°
2026-04-24 13:11 33.42883 -112.01729 1130 ft 115 kts 90°
2026-04-24 13:11 33.42885 -112.01036 1131 ft 54 kts 90°
2026-04-24 13:12 33.42925 -112.00813 1132 ft 11 kts 54°
2026-04-24 13:12 33.42948 -112.00779 1131 ft 6 kts 54°
2026-04-24 13:12 33.42978 -112.00728 1126 ft 9 kts 54°
2026-04-24 13:12 33.43014 -112.00658 1131 ft 10 kts 56°
2026-04-24 13:13 33.43071 -112.00627 1134 ft 8 kts 360°
2026-04-24 13:13 33.43129 -112.00626 1134 ft 9 kts
2026-04-24 13:13 33.43191 -112.00583 1135 ft 13 kts 60°
2026-04-24 13:13 33.43243 -112.00484 1124 ft 13 kts 24°
2026-04-24 13:14 33.43284 -112.00386 1122 ft 14 kts 87°
2026-04-24 13:14 33.43301 -112.00289 1124 ft 13 kts 62°
2026-04-24 13:14 33.43322 -112.00226 1124 ft 8 kts 55°
2026-04-24 13:14 33.43347 -112.00210 1121 ft 0 kts